This is the latest recevied weather packets stored in our database for station/object KD5NDU-15. If no packets are shown the sender has not sent any weather packets the latest 10 day(s).
| Time | Temp. | Humidity | Pressure | Rain* | Wind** | Luminosity | Snow |
|---|---|---|---|---|---|---|---|
| 1778178047 | 21.67° C | 65% | 1013.6 hPa | 0 mm | - | 946 W/m² | - |
| 1778177246 | 21.67° C | 66% | 1013.6 hPa | 0 mm | - | 972 W/m² | - |
| 1778176840 | 21.67° C | 63% | 1013.7 hPa | 0 mm | - | 942 W/m² | - |
| 1778176542 | 21.67° C | 67% | 1013.6 hPa | 0 mm | - | 939 W/m² | - |
| 1778176247 | 21.11° C | 63% | 1013.6 hPa | 0 mm | - | 940 W/m² | - |
| 1778175940 | 21.11° C | 71% | 1013.6 hPa | 0 mm | - | 949 W/m² | - |
| 1778175789 | 21.11° C | 63% | 1013.6 hPa | 0 mm | - | 947 W/m² | - |
| 1778175354 | 21.11° C | 66% | 1013.6 hPa | 0 mm | - | 944 W/m² | - |
| 1778175044 | 20.56° C | 67% | 1013.7 hPa | 0 mm | - | 930 W/m² | - |
| 1778174762 | 20.56° C | 64% | 1013.6 hPa | 0 mm | - | 930 W/m² | - |
| 1778174515 | 20.56° C | 66% | 1013.7 hPa | 0 mm | - | 926 W/m² | - |
| 1778174140 | 20.56° C | 68% | 1014 hPa | 0 mm | - | 926 W/m² | - |
| 1778173870 | 20.56° C | 63% | 1014.2 hPa | 0 mm | - | 919 W/m² | - |
| 1778173540 | 20.56° C | 66% | 1013.9 hPa | 0 mm | - | 921 W/m² | - |
| 1778173256 | 20° C | 64% | 1014.2 hPa | 0 mm | - | 916 W/m² | - |
| 1778172940 | 20° C | 65% | 1014.3 hPa | 0 mm | - | 907 W/m² | - |
| 1778172640 | 20° C | 69% | 1014.3 hPa | 0 mm | - | 898 W/m² | - |
| 1778172340 | 19.44° C | 68% | 1014.4 hPa | 0 mm | - | 893 W/m² | - |
| 1778172040 | 19.44° C | 67% | 1014.4 hPa | 0 mm | - | 889 W/m² | - |
| 1778171765 | 19.44° C | 66% | 1014.4 hPa | 0 mm | - | 882 W/m² | - |
| 1778171440 | 19.44° C | 68% | 1014.4 hPa | 0 mm | - | 875 W/m² | - |
| 1778171145 | 18.89° C | 66% | 1014.4 hPa | 0 mm | - | 868 W/m² | - |
| 1778170244 | 18.89° C | 68% | 1014.6 hPa | 0 mm | - | 844 W/m² | - |
| 1778169963 | 18.89° C | 69% | 1014.5 hPa | 0 mm | - | 831 W/m² | - |
| 1778169640 | 18.89° C | 68% | 1014.4 hPa | 0 mm | - | 826 W/m² | - |
* Rain latest hour (hover to see other rain measurements)
** Current wind speed in m/s (hover to see current wind gust speed)